When you browse on this site, cookies collect data to enhance your experience and personalize the content and advertising you see.
Visit our Privacy Policy to learn more. By continuing to use the site, you agree to this use of cookies and data.
  • In Austria
  • List of Countries
  • For 7 days
  • Water Temperature
  • Satellite Maps
  • Weather Map
  • News
  • Weather Widgets
  • user-avatar
    Login

    Hourly Weather Kalgoorlie

    Today, 25 March, Monday

    Time Temperature Precipitation Wind Pressure Humidity
    00:00 +15°C° 0 mm 8 mps 732 mmHg 62%
    01:00 +14°C° 0 mm 7 mps 732 mmHg 64%
    02:00 +14°C° 0 mm 7 mps 732 mmHg 66%
    03:00 +12°C° 0 mm 7 mps 732 mmHg 67%
    04:00 +13°C° 0 mm 6 mps 733 mmHg 68%
    05:00 +13°C° 0 mm 6 mps 733 mmHg 69%
    06:00 +13°C° 0 mm 6 mps 733 mmHg 67%
    07:00 +14°C° 0 mm 7 mps 733 mmHg 65%
    08:00 +14°C° 0 mm 7 mps 734 mmHg 64%
    09:00 +16°C° 0 mm 7 mps 734 mmHg 55%
    10:00 +19°C° 0 mm 6 mps 734 mmHg 47%
    11:00 +20°C° 0 mm 6 mps 734 mmHg 39%
    12:00 +22°C° 0 mm 6 mps 733 mmHg 36%
    13:00 +23°C° 0 mm 6 mps 733 mmHg 32%
    14:00 +24°C° 0 mm 6 mps 733 mmHg 29%
    15:00 +24°C° 0 mm 6 mps 733 mmHg 29%
    16:00 +24°C° 0 mm 6 mps 733 mmHg 30%
    17:00 +24°C° 0 mm 7 mps 733 mmHg 31%
    18:00 +23°C° 0 mm 7 mps 733 mmHg 35%
    19:00 +22°C° 0 mm 7 mps 733 mmHg 39%
    20:00 +21°C° 0 mm 7 mps 734 mmHg 43%
    21:00 +20°C° 0 mm 7 mps 734 mmHg 46%
    22:00 +18°C° 0 mm 7 mps 734 mmHg 50%
    23:00 +18°C° 0 mm 7 mps 735 mmHg 53%

    Tomorrow, 26 March, Tuesday

    Time Temperature Precipitation Wind Pressure Humidity
    00:00 +17°C° 0 mm 6 mps 734 mmHg 56%
    01:00 +16°C° 0 mm 6 mps 734 mmHg 59%
    02:00 +16°C° 0 mm 6 mps 734 mmHg 62%
    03:00 +15°C° 0 mm 6 mps 734 mmHg 64%
    04:00 +15°C° 0 mm 6 mps 734 mmHg 67%
    05:00 +15°C° 0 mm 6 mps 735 mmHg 69%
    06:00 +15°C° 0 mm 6 mps 735 mmHg 68%
    07:00 +16°C° 0 mm 6 mps 735 mmHg 66%
    08:00 +16°C° 0 mm 7 mps 735 mmHg 65%
    09:00 +18°C° 0 mm 7 mps 735 mmHg 57%
    10:00 +21°C° 0 mm 7 mps 735 mmHg 49%
    11:00 +23°C° 0 mm 7 mps 735 mmHg 41%
    12:00 +24°C° 0 mm 7 mps 734 mmHg 37%
    13:00 +27°C° 0 mm 6 mps 733 mmHg 32%
    14:00 +28°C° 0 mm 6 mps 733 mmHg 28%
    15:00 +28°C° 0 mm 6 mps 733 mmHg 27%
    16:00 +28°C° 0 mm 6 mps 733 mmHg 27%
    17:00 +28°C° 0 mm 5 mps 733 mmHg 26%
    18:00 +27°C° 0 mm 5 mps 733 mmHg 29%
    19:00 +26°C° 0 mm 5 mps 733 mmHg 31%
    20:00 +25°C° 0 mm 5 mps 733 mmHg 33%
    21:00 +25°C° 0 mm 5 mps 733 mmHg 35%
    22:00 +23°C° 0 mm 5 mps 733 mmHg 37%
    23:00 +23°C° 0 mm 5 mps 733 mmHg 39%

    Day after tomorrow, 27 March, Wednesday

    Time Temperature Precipitation Wind Pressure Humidity
    00:00 +22°C° 0 mm 5 mps 733 mmHg 41%
    01:00 +22°C° 0 mm 5 mps 733 mmHg 42%
    02:00 +21°C° 0 mm 5 mps 732 mmHg 44%
    03:00 +21°C° 0 mm 5 mps 732 mmHg 46%
    04:00 +20°C° 0 mm 4 mps 732 mmHg 47%
    05:00 +20°C° 0 mm 4 mps 732 mmHg 49%
    06:00 +20°C° 0 mm 5 mps 732 mmHg 47%
    07:00 +21°C° 0 mm 5 mps 732 mmHg 46%
    08:00 +22°C° 0 mm 5 mps 733 mmHg 44%
    09:00 +23°C° 0 mm 5 mps 732 mmHg 42%
    10:00 +25°C° 0 mm 5 mps 732 mmHg 39%
    11:00 +26°C° 0 mm 5 mps 732 mmHg 36%
    12:00 +26°C° 0 mm 5 mps 732 mmHg 37%
    13:00 +26°C° 0 mm 5 mps 731 mmHg 38%
    14:00 +26°C° 0 mm 4 mps 731 mmHg 39%
    15:00 +26°C° 0 mm 4 mps 731 mmHg 40%
    16:00 +26°C° 0 mm 3 mps 731 mmHg 42%
    17:00 +25°C° 0 mm 2 mps 731 mmHg 43%
    18:00 +25°C° 0 mm 2 mps 731 mmHg 46%
    19:00 +24°C° 0 mm 1 mps 731 mmHg 48%
    20:00 +24°C° 0 mm 1 mps 731 mmHg 51%
    21:00 +24°C° 0 mm 1 mps 731 mmHg 52%
    22:00 +22°C° 0 mm 0 mps 731 mmHg 52%
    23:00 +22°C° 0 mm 0 mps 730 mmHg 53%

    28 March, Thursday

    Time Temperature Precipitation Wind Pressure Humidity
    00:00 +24°C° 0 mm 1 mps 730 mmHg 53%
    01:00 +24°C° 0 mm 1 mps 730 mmHg 52%
    02:00 +24°C° 0 mm 1 mps 730 mmHg 51%
    03:00 +24°C° 0.1 mm 1 mps 730 mmHg 53%
    04:00 +24°C° 0.1 mm 1 mps 730 mmHg 56%
    05:00 +23°C° 0.1 mm 1 mps 730 mmHg 58%
    06:00 +24°C° 0 mm 2 mps 731 mmHg 57%
    07:00 +24°C° 0 mm 3 mps 731 mmHg 56%
    08:00 +23°C° 0 mm 4 mps 731 mmHg 56%
    09:00 +25°C° 0 mm 4 mps 731 mmHg 51%
    10:00 +26°C° 0 mm 4 mps 731 mmHg 47%
    11:00 +28°C° 0 mm 4 mps 731 mmHg 43%
    12:00 +28°C° 0 mm 3 mps 731 mmHg 42%
    13:00 +28°C° 0 mm 3 mps 730 mmHg 41%
    14:00 +29°C° 0 mm 2 mps 729 mmHg 40%
    15:00 +29°C° 0 mm 2 mps 730 mmHg 39%
    16:00 +29°C° 0 mm 3 mps 730 mmHg 38%
    17:00 +30°C° 0 mm 3 mps 730 mmHg 37%
    18:00 +28°C° 0 mm 5 mps 731 mmHg 39%
    19:00 +27°C° 0 mm 7 mps 731 mmHg 42%
    20:00 +26°C° 0 mm 9 mps 732 mmHg 44%
    21:00 +23°C° 0 mm 9 mps 732 mmHg 50%
    22:00 +22°C° 0 mm 9 mps 733 mmHg 57%
    23:00 +19°C° 0 mm 9 mps 733 mmHg 63%

    29 March, Friday

    Time Temperature Precipitation Wind Pressure Humidity
    00:00 +18°C° 0 mm 9 mps 733 mmHg 66%
    01:00 +17°C° 0 mm 8 mps 733 mmHg 69%
    02:00 +16°C° 0 mm 8 mps 733 mmHg 72%
    03:00 +16°C° 0 mm 7 mps 733 mmHg 72%
    04:00 +16°C° 0 mm 7 mps 733 mmHg 73%
    05:00 +15°C° 0 mm 7 mps 734 mmHg 73%
    06:00 +15°C° 0 mm 7 mps 734 mmHg 71%
    07:00 +15°C° 0 mm 7 mps 735 mmHg 69%
    08:00 +15°C° 0 mm 7 mps 735 mmHg 68%
    09:00 +17°C° 0 mm 7 mps 735 mmHg 60%
    10:00 +20°C° 0 mm 7 mps 735 mmHg 53%
    11:00 +21°C° 0 mm 7 mps 735 mmHg 46%
    12:00 +23°C° 0 mm 7 mps 734 mmHg 42%
    13:00 +24°C° 0 mm 7 mps 734 mmHg 39%
    14:00 +26°C° 0 mm 7 mps 733 mmHg 35%
    15:00 +26°C° 0 mm 7 mps 733 mmHg 34%
    16:00 +26°C° 0 mm 7 mps 733 mmHg 32%
    17:00 +26°C° 0 mm 7 mps 734 mmHg 31%
    18:00 +23°C° 0 mm 7 mps 734 mmHg 34%
    19:00 +22°C° 0 mm 8 mps 735 mmHg 36%
    20:00 +21°C° 0 mm 8 mps 735 mmHg 39%
    21:00 +20°C° 0 mm 8 mps 736 mmHg 42%
    22:00 +18°C° 0 mm 7 mps 736 mmHg 46%
    23:00 +17°C° 0 mm 7 mps 736 mmHg 49%

    30 March, Saturday

    Time Temperature Precipitation Wind Pressure Humidity
    00:00 +16°C° 0 mm 7 mps 736 mmHg 53%
    01:00 +15°C° 0 mm 6 mps 736 mmHg 57%
    02:00 +15°C° 0 mm 6 mps 736 mmHg 61%
    03:00 +14°C° 0 mm 6 mps 736 mmHg 64%
    04:00 +14°C° 0 mm 6 mps 736 mmHg 67%
    05:00 +13°C° 0 mm 5 mps 735 mmHg 70%
    06:00 +14°C° 0 mm 6 mps 736 mmHg 69%
    07:00 +14°C° 0 mm 6 mps 736 mmHg 67%
    08:00 +14°C° 0 mm 6 mps 736 mmHg 66%
    09:00 +16°C° 0 mm 6 mps 736 mmHg 56%
    10:00 +19°C° 0 mm 6 mps 736 mmHg 46%
    11:00 +21°C° 0 mm 5 mps 736 mmHg 37%
    12:00 +23°C° 0 mm 5 mps 735 mmHg 32%
    13:00 +25°C° 0 mm 4 mps 735 mmHg 28%
    14:00 +26°C° 0 mm 4 mps 734 mmHg 24%
    15:00 +26°C° 0 mm 4 mps 734 mmHg 23%
    16:00 +26°C° 0 mm 4 mps 734 mmHg 22%
    17:00 +27°C° 0 mm 4 mps 734 mmHg 21%
    18:00 +26°C° 0 mm 4 mps 734 mmHg 23%
    19:00 +25°C° 0 mm 4 mps 735 mmHg 25%
    20:00 +23°C° 0 mm 4 mps 735 mmHg 27%
    21:00 +22°C° 0 mm 4 mps 735 mmHg 30%
    22:00 +21°C° 0 mm 4 mps 735 mmHg 32%
    23:00 +21°C° 0 mm 5 mps 735 mmHg 35%
    Show more